Location: Ferchesar
(52.6477°N, 12.4298°E)
Time: 04:50:29
(UTC+02:00)

Vanguard 3 - Pass Details

Date: 08 March 2021
Orbit: 508 x 3262 km, 33.3° (Epoch: 15 April)

Event Time Altitude Azimuth Distance (km) Brightness Sun altitude
Rises 16:18:22 0° 251° (WSW) 7,218 13.8 14.1°
Reaches altitude 10° 16:23:50 10° 244° (WSW) 6,185 15.2 13.4°
Maximum altitude 16:40:12 37° 188° (S) 3,789 11.1 11.1°
Drops below altitude 10° 16:52:13 10° 128° (SE) 4,570 10.7 9.5°
Sets 16:55:33 0° 119° (ESE) 5,220 10.9 9.0°
